Omaha, IA

10:04 PM CDT on July 22, 2017 (GMT -0500)
Eppley Airfield

Weather History for KOMA - August, 2014

Change the Weather History Date:

Saturday, August 16, 2014

  Actual Average Record
Temperature  
Mean Temperature 78 °F 75 °F  
Max Temperature 86 °F 85 °F 106 °F (1983)
Min Temperature 69 °F 64 °F 51 °F (1897)
Degree Days  
Heating Degree Days 0 0  
Month to date heating degree days 0 0  
Since 1 June heating degree days 10 18  
Since 1 July heating degree days 4 1  
Cooling Degree Days 13 10  
Month to date cooling degree days 142 171  
Year to date cooling degree days 833 848  
Since 1 June cooling degree days 690 766  
Growing Degree Days 28 (Base 50)    
Moisture  
Dew Point 66 °F    
Average Humidity 73    
Maximum Humidity 90    
Minimum Humidity 55    
Precipitation  
Precipitation T in 0.14 in 2.13 in (1884)
Month to date precipitation 2.09 2.03  
Year to date precipitation 21.15 21.32  
Snow  
Snow 0.00 in 0.00 in - ()
Month to date snowfall 0.0 0.0  
Since 1 July snowfall 0.0 0.0  
Snow Depth 0.00 in    
Sea Level Pressure  
Sea Level Pressure 29.86 in    
Wind  
Wind Speed 6 mph (NE)    
Max Wind Speed 10 mph    
Max Gust Speed 14 mph    
Visibility 10 miles    
Events Rain    
T = Trace of Precipitation, MM = Missing Value Source: NWS Daily Summary

Daily Weather History Graph

Daily Weather History Graph

Search for Another Location

Airport or City:

Trip Planner

Search our weather history database for the weather conditions in past years. The results will help you decide how hot, cold, wet, or windy it might be!

Date:

Astronomy

Aug. 16, 2014 Rise Set
Actual Time 6:33 AM CDT 8:21 PM CDT
Civil Twilight 6:04 AM CDT 8:50 PM CDT
Nautical Twilight 5:28 AM CDT 9:26 PM CDT
Astronomical Twilight 4:49 AM CDT 10:04 PM CDT
Moon No Moon Rise 1:25 PM CDT (8/16)
Length of Visible Light 14h 46m
Length of Day
13h 47m
Waning Gibbous, 58% of the Moon is Illuminated
Aug 16
Waning Gibbous
Aug 17
Last Quarter
Aug 25
New
Sep 2
First Quarter
Sep 8
Full

Hourly Weather History & Observations

Time (CDT) Temp. Heat Index Dew Point Humidity Pressure Visibility Wind Dir Wind Speed Gust Speed Precip Events Conditions
12:52 AM 70.0 °F - 66.9 °F 90% 29.83 in 9.0 mi Calm Calm - 0.01 in   Light Drizzle
1:52 AM 70.0 °F - 66.9 °F 90% 29.83 in 9.0 mi NNE 4.6 mph - 0.00 in   Overcast
2:52 AM 70.0 °F - 66.9 °F 90% 29.82 in 10.0 mi East 3.5 mph - N/A   Overcast
3:15 AM 71.1 °F - 66.9 °F 87% 29.84 in 10.0 mi East 3.5 mph - N/A   Overcast
3:52 AM 71.1 °F - 66.9 °F 87% 29.82 in 10.0 mi NNE 4.6 mph - N/A   Overcast
4:07 AM 70.0 °F - 66.0 °F 87% 29.84 in 10.0 mi NE 3.5 mph - N/A   Overcast
4:34 AM 70.0 °F - 66.0 °F 87% 29.84 in 10.0 mi NE 3.5 mph - N/A   Overcast
4:52 AM 70.0 °F - 66.9 °F 90% 29.82 in 10.0 mi North 4.6 mph - N/A   Overcast
5:52 AM 70.0 °F - 66.9 °F 90% 29.83 in 10.0 mi North 6.9 mph - N/A   Overcast
6:52 AM 69.1 °F - 66.0 °F 90% 29.85 in 9.0 mi NNW 5.8 mph - N/A   Overcast
7:28 AM 70.0 °F - 66.9 °F 90% 29.87 in 10.0 mi North 6.9 mph - N/A   Overcast
7:52 AM 70.0 °F - 66.9 °F 90% 29.86 in 9.0 mi North 6.9 mph - N/A   Overcast
8:09 AM 70.0 °F - 66.9 °F 90% 29.87 in 9.0 mi North 8.1 mph - N/A   Overcast
8:52 AM 72.0 °F - 66.9 °F 84% 29.85 in 10.0 mi North 3.5 mph - N/A   Overcast
9:52 AM 73.9 °F - 66.9 °F 79% 29.86 in 10.0 mi North 6.9 mph - N/A   Overcast
10:52 AM 75.9 °F - 66.0 °F 71% 29.87 in 10.0 mi NE 5.8 mph - N/A   Overcast
11:52 AM 78.1 °F - 66.0 °F 66% 29.87 in 10.0 mi NE 8.1 mph - N/A   Mostly Cloudy
12:21 PM 79.0 °F - 66.0 °F 64% 29.89 in 10.0 mi NNE 8.1 mph - N/A   Mostly Cloudy
12:52 PM 81.0 °F 83.0 °F 66.0 °F 60% 29.87 in 10.0 mi NNE 5.8 mph - N/A   Mostly Cloudy
1:13 PM 80.1 °F 82.1 °F 66.0 °F 62% 29.88 in 10.0 mi East 5.8 mph - N/A   Mostly Cloudy
1:34 PM 81.0 °F 82.7 °F 64.9 °F 58% 29.88 in 10.0 mi ENE 3.5 mph - N/A   Mostly Cloudy
1:52 PM 82.0 °F 84.1 °F 66.0 °F 58% 29.86 in 10.0 mi NNE 5.8 mph - N/A   Mostly Cloudy
2:52 PM 82.9 °F 85.0 °F 66.0 °F 56% 29.86 in 10.0 mi ENE 5.8 mph - N/A   Mostly Cloudy
3:52 PM 84.0 °F 86.3 °F 66.0 °F 55% 29.86 in 10.0 mi NE 5.8 mph - N/A   Mostly Cloudy
4:52 PM 84.0 °F 86.3 °F 66.0 °F 55% 29.85 in 10.0 mi Variable 5.8 mph - N/A   Scattered Clouds
5:52 PM 82.9 °F 85.4 °F 66.9 °F 58% 29.86 in 10.0 mi East 8.1 mph - N/A   Scattered Clouds
6:52 PM 82.0 °F 84.1 °F 66.0 °F 58% 29.86 in 10.0 mi East 6.9 mph - N/A   Scattered Clouds
7:52 PM 81.0 °F 83.0 °F 66.0 °F 60% 29.85 in 10.0 mi East 3.5 mph - N/A   Partly Cloudy
8:52 PM 77.0 °F - 68.0 °F 74% 29.87 in 10.0 mi ESE 5.8 mph - N/A   Partly Cloudy
9:52 PM 75.0 °F - 68.0 °F 79% 29.90 in 10.0 mi SE 6.9 mph - N/A   Partly Cloudy
10:52 PM 73.9 °F - 66.9 °F 79% 29.91 in 10.0 mi SE 6.9 mph - N/A   Partly Cloudy
11:52 PM 73.4 °F - 66.2 °F 78% 29.93 in 10.0 mi ESE 5.8 mph - N/A   Clear